FALCON 9 R/B, 62719

Orbit data source: Space-Track

FALCON 9 R/B, 62719 is space debris in HEO originally from a launch on Wed, 15 Jan 2025 UTC launched from the Air Force Eastern Test Range (AFETR). Debris objects in space refer to the collection of defunct objects orbiting the Earth. Examples of debris include non-operational satellites, rocket bodies, and fragments generated from explosions, collisions, or faulty payload assembly.

Loading next visibility...
Identifier
62719, 2025-010D
Orbit
HEO
Last TLE update
1 week ago
Origin
Manufacturer
SpaceX
Mission
Spacecraft
Bus & Motor
F9ST2, Unknown motor
Mass
~3,000 kg wet, ~3,000 kg dry
Launch date (UTC)
2025-01-15 (4 months ago)
Launch vehicle
Unknown
Launch site
Air Force Eastern Test Range (AFETR)
Object type
Payload
Rocket body
Debris
Shape & HBR
Cyl, 15.53 m
Radar Cross Section
39.980 m²

Expand to show TLE details & history

TLE from 1 week ago
0 FALCON 9 R/B
1 62719U 25010D   25123.08615694 -.00013663  00000-0  00000-0 0  9995
2 62719  35.1424 356.3518 9432750 356.2161 359.8552  0.08711879    54
Epoch: 2025-05-03T02:04Z
Definitive object data (Epoch: 2025-05-03T02:04:03.959Z)
Latitude
-26.077°
Longitude
-31.03134°
Altitude
50,598.448 km
Speed
3.484 km/s
True Right ascension
14h 44m 52s
True Declination
-26° 03' 36"
Sunlit
Object was in daylight at TLE epoch
Visualization TLE readout
Latitude
0.59969°
Longitude
-76.67186°
Altitude
408,381.224 km
Speed
0.26 km/s
Apparent Right ascension
11h 41m 33s
Apparent Declination
0° 02' 13"
Sunlit
Object is in daylight
Visualization observer readout
Local Sidereal Time
22:36:21
Azimuth
335.521° NNW
Elevation
-47.371°
Doppler factor
1
Orbital elements
Apogee altitude
411,324.777 km
Perigee altitude
5,814.784 km
Semi-major axis
214,947.917 km
Eccentricity
0.943275
Inclination
35.1424°
RAAN
356.3518°
Arg. of periapsis
356.2161°
True anomaly
345.22712°
Mean anomaly
359.8552°
Eccentric anomaly
357.46236°
Mean motion
0.02178 °/min
BSTAR
Unknown
Orbital period
16529.48 mins
Loading maneuver chart data...
Loading SW <> Apogee altitude chart data...
Loading historical data...
Loading historical data...
Loading historical data...
Loading historical data...
Loading historical data...
Loading historical data...
Loading historical data...
Other satellites on launch #10 in the year 2025 (2025-01-15 UTC)

FALCON 9 R/B Visibility forecast

Observer location: undefined°, undefined°

Span
Click to sort rows by Start time (UTC) header in descending order
Start Az.
Max El. time (UTC)
Max El. Az.
Max El.
End time (UTC)
End Az.
604 mins2025-05-09 22:32:12.908Z99.407° ESE2025-05-10 03:35:12.908Z179.927° S37.116°2025-05-10 08:36:12.908Z259.632° W
|